Location: Piedigrotta
(40.9833°N, 14.2000°E)
Time: 22:02:30
(UTC+00:00)

Daily predictions for brighter satellites

Satellite Brightness Start Highest point End
(mag) Time Altitude Azimuth Time Altitude Azimuth Time Altitude Azimuth
Cosmos 2344 3.7 16:21:06 10° SW 16:29:05 81° NW 16:36:21 10° NNE
Meteor 2-17 Rocket 4.4 16:23:12 10° S 16:29:14 70° E 16:35:16 10° NNE
Meteor 1-16 Rocket 4.4 16:24:04 10° N 16:29:26 52° ENE 16:34:56 10° SSE
BREEZE-M TANK 2.8 16:27:33 10° WNW 16:31:08 61° NNE 16:36:37 10° E
Delta 2 Rocket 4.4 16:30:42 10° SW 16:33:27 25° S 16:36:07 10° ESE
Cosmos 1707 Rocket 3.9 16:30:19 10° SSE 16:34:34 47° E 16:38:49 10° NNE
Okean 3 3.6 16:30:52 10° S 16:34:48 50° E 16:38:48 10° NNE
ASTEX 1 4.3 16:31:04 10° S 16:35:47 53° W 16:40:33 10° NNW
Meteor 1-31 Rocket 4.2 16:34:47 10° ESE 16:36:57 16° ENE 16:39:08 10° NNE
Okean 2 3.6 16:35:29 10° SSE 16:39:13 43° E 16:42:59 10° NNE
Cosmos 1943 Rocket 2.3 16:41:55 10° NNW 16:47:28 53° ENE 16:52:55 10° SE
Cosmos 2237 Rocket 2.2 16:42:42 10° SSW 16:48:22 76° ESE 16:54:04 10° NNE
NOSS 5 (C) 4.2 16:45:57 10° NNW 16:49:08 70° NE 16:52:30 10° SE
Cosmos 1862 Rocket 3.5 16:48:07 10° S 16:52:25 67° E 16:56:48 10° NNE
RESURS DK-1 2.6 16:50:24 10° NNW 16:54:15 43° ENE 16:58:05 10° SE
BREEZE-M DEB (TANK) 2.9 16:56:14 10° WNW 16:58:11 23° NNW 17:00:09 13° NE
BlueWalker 3 3.8 16:56:15 10° NNW 16:58:22 15° NNE 16:59:51 12° NE
SJ-7 4.5 16:55:25 10° S 16:59:10 74° WSW 17:02:59 10° NNW
ARGOS Delta rocket 4.2 16:55:03 10° S 16:59:44 65° W 17:04:13 10° NNW
Cosmos 1455 3.9 16:57:34 10° NNW 17:00:27 31° W 17:03:18 10° SSW
Cosmos 2278 Rocket 2.2 16:55:54 10° NNW 17:01:36 89° ENE 17:07:15 10° SSE
CZ-4B R/B 4.4 16:58:37 10° SE 17:01:46 29° ENE 17:04:54 10° N
CZ-4C R/B 1.6 16:58:54 10° SSW 17:03:01 76° ESE 17:08:01 11° NE
COSMO-SKYMED 1 2.6 16:58:45 10° NNE 17:03:05 64° E 17:07:23 10° S
ISS -2.6 17:00:32 10° W 17:03:40 36° NNW 17:06:06 15° NE
Nadezhda 4 Rocket 4.0 17:00:01 10° SSE 17:05:56 56° E 17:11:55 10° NNE
Cosmos 2180 Rocket 4.4 17:01:14 10° N 17:07:32 76° E 17:13:43 10° SSE
YAOGAN 1 3.0 17:06:51 10° SE 17:10:45 36° ENE 17:14:40 10° N
ATLAS 5 CENTAUR R/B 1.1 17:09:51 10° SSW 17:12:52 45° ESE 17:14:20 25° ENE
Landsat 7 3.7 17:12:08 10° SSE 17:16:47 71° ENE 17:21:29 10° N
Cosmos 1733 Rocket 3.4 17:12:26 10° NNW 17:16:49 68° W 17:21:11 10° S
SPOT 1/Viking Rocket 4.2 17:14:00 10° SE 17:18:32 32° ENE 17:23:05 10° N
Cosmos 1703 Rocket 3.9 17:17:04 10° SSE 17:21:14 42° E 17:25:04 12° NNE
Cosmos 2228 Rocket 4.1 17:19:02 10° SSW 17:23:24 50° W 17:27:51 10° N
Resurs 1-3 4.2 17:22:32 10° SE 17:26:22 32° ENE 17:30:14 10° N
Cosmos 841 Rocket 3.5 17:24:08 10° SSW 17:29:23 89° WNW 17:34:40 10° NNE
Cosmos 1656 Rocket 4.3 17:27:09 10° N 17:32:00 31° ENE 17:33:23 28° E
Cosmos 1898 Rocket 3.5 17:26:49 10° NNW 17:32:09 87° ENE 17:37:28 10° SSE
Cosmos 1703 2.8 17:31:04 10° S 17:34:34 69° E 17:36:27 25° NNE
Aureole 1 Rocket 4.4 17:28:52 10° NNW 17:36:31 80° WSW 17:43:06 10° SSE
Okean 1-7 3.3 17:32:49 10° SSW 17:37:04 66° W 17:41:20 10° N
SL-16 R/B 2.3 17:32:06 10° S 17:37:36 55° ESE 17:40:55 24° NE
Cosmos 1953 4.5 17:42:18 10° NNW 17:45:25 26° W 17:48:31 10° SSW
Cosmos 1437 Rocket 3.8 17:46:04 10° SSE 17:48:07 28° SSE 17:48:07 28° SSE
Cosmos 1092 Rocket 3.9 17:45:45 10° S 17:51:48 65° E 17:57:58 10° NNE
ACS3 Solar Sail 2.0 17:47:07 10° S 17:53:29 76° WSW 17:59:55 10° NNW
Cosmos 839 Rocket 4.1 17:46:51 10° SSW 17:53:31 56° ESE 17:55:54 36° ENE
Cosmos 1818 3.6 17:49:44 10° NNW 17:55:05 54° NE 17:56:18 44° E
ATLAS 2AS CENTAUR R/B 2.7 17:50:13 10° NNW 17:56:50 52° NE 17:59:05 37° E
DMSP B5D1-3 4.3 17:53:59 19° NNE 17:57:39 76° ESE 18:02:43 10° S
Cosmos 2369 Rocket 3.1 17:53:07 10° N 17:56:55 30° NNE 17:56:55 30° NNE
BREEZE-M DEB (TANK) 4.4 18:01:42 10° WNW 18:07:01 26° NNW 18:07:22 25° N
Cosmos 1908 Rocket 4.1 18:05:36 10° NNW 18:09:52 58° W 18:14:05 10° S
Meteor 1-31 Rocket 4.4 18:07:01 10° SSW 18:10:12 31° W 18:13:25 10° NNW
Cosmos 1867 4.3 18:10:31 10° S 18:14:17 37° SSE 18:14:17 37° SSE
Cosmos 2026 Rocket 4.2 18:14:14 10° SSW 18:20:36 71° W 18:26:58 10° N
Cosmos 2297 4.0 18:15:41 10° NNW 18:20:17 50° NNE 18:20:17 50° NNE
Cosmos 1825 4.5 18:22:32 10° SW 18:23:11 15° SW 18:23:11 15° SW
BREEZE-M DEB (TANK) 3.9 18:17:09 10° W 18:28:05 42° NNW 18:28:56 39° N
CZ-4C R/B 4.1 18:48:52 10° WNW 18:52:10 18° NNW 18:53:05 18° NNW
SL-16 R/B 4.1 19:17:34 10° WSW 19:22:02 23° NW 19:22:50 23° NW
BREEZE-M DEB (TANK) 4.5 18:59:57 10° WSW 19:25:36 86° NNW 19:25:36 86° NNW
Cosmos 2369 Rocket 4.5 19:37:06 10° NW 19:38:45 18° NW 19:38:45 18° NW
ATLAS 2AS CENTAUR R/B 4.1 19:41:39 10° NW 19:46:35 30° W 19:46:35 30° W
